Location: Carbonear
(47.7333°N, 53.2500°W)
Time: 17:06:29
(UTC+00:00)

CUTE-I - Pass Details

Date: 06 December 2022
Orbit: 809 x 824 km, 98.7° (Epoch: 05 February)

Event Time Altitude Azimuth Distance (km) Brightness Sun altitude
Rises 21:37:37 0° 188° (S) 3,323 ? -18.7°
Reaches altitude 10° 21:40:07 10° 197° (SSW) 2,398 ? -19.1°
Maximum altitude 21:45:00 36° 264° (W) 1,270 ? -19.9°
Drops below altitude 10° 21:49:55 10° 330° (NNW) 2,424 ? -20.7°
Sets 21:52:29 0° 339° (NNW) 3,364 ? -21.1°
